Location: Vancouver
(49.2500°N, 123.1330°W)
Time: 03:13:39
(UTC-08:00)

ISS - All Passes

Search period start: 23 November 2017 00:00
Search period end: 03 December 2017 00:00
Orbit: 402 x 407 km, 51.6° (Epoch: 23 November)

Date Brightness Start Highest point End Pass type
(mag) Time Alt. Az. Time Alt. Az. Time Alt. Az.
23 Nov - 01:22:17 10° WNW 01:25:34 82° SSW 01:28:50 10° ESE night (unlit)
23 Nov - 02:59:16 10° W 03:01:41 19° SW 03:04:05 10° S night (unlit)
23 Nov - 19:42:04 10° S 19:44:00 15° SE 19:45:55 10° ESE night (unlit)
23 Nov - 21:16:45 10° WSW 21:20:00 67° SSE 21:23:16 10° ENE night (unlit)
23 Nov - 22:53:20 10° W 22:56:34 55° N 22:59:48 10° ENE night (unlit)
24 Nov - 00:29:59 10° WNW 00:33:16 74° NNE 00:36:33 10° ESE night (unlit)
24 Nov - 02:06:39 10° W 02:09:34 30° SW 02:12:29 10° SSE night (unlit)
24 Nov - 20:24:38 10° SW 20:27:46 43° SSE 20:30:55 10° ENE night (unlit)
24 Nov - 22:00:57 10° W 22:04:13 63° N 22:07:28 10° ENE night (unlit)
24 Nov - 23:37:40 10° WNW 23:40:56 60° N 23:44:10 10° E night (unlit)
25 Nov - 01:14:13 10° WNW 01:17:23 48° SSW 01:20:33 10° SE night (unlit)
25 Nov - 19:32:44 10° SSW 19:35:35 27° SE 19:38:27 10° E visible
25 Nov - 21:08:34 10° WSW 21:11:51 79° NNW 21:15:09 10° ENE night (unlit)
25 Nov - 22:45:19 10° WNW 22:48:33 54° N 22:51:46 10° E night (unlit)
26 Nov - 00:21:51 10° WNW 00:25:08 73° SSW 00:28:24 10° ESE night (unlit)
26 Nov - 01:59:03 10° W 02:01:10 16° SW 02:03:18 10° S night (unlit)
26 Nov - 18:41:12 10° S 18:43:28 17° SE 18:45:44 10° E visible
26 Nov - 20:16:16 10° WSW 20:19:32 76° SSE 20:22:49 10° ENE night (unlit)
26 Nov - 21:52:55 10° W 21:56:08 54° N 21:59:22 10° ENE night (unlit)
26 Nov - 23:29:32 10° WNW 23:32:49 81° NNE 23:36:05 10° ESE night (unlit)
27 Nov - 01:06:15 10° W 01:09:03 26° SW 01:11:49 10° SSE night (unlit)
27 Nov - 17:50:42 10° SSE 17:51:23 10° SE 17:52:04 10° ESE visible
27 Nov - 19:24:03 10° SW 19:27:14 51° SSE 19:30:27 10° ENE visible
27 Nov - 21:00:28 10° W 21:03:44 59° N 21:06:58 10° ENE night (unlit)
27 Nov - 22:37:10 10° WNW 22:40:26 64° NNE 22:43:41 10° E night (unlit)
28 Nov - 00:13:45 10° WNW 00:16:51 41° SSW 00:19:56 10° SE night (unlit)
28 Nov - 18:32:02 10° SSW 18:35:00 32° SSE 18:37:59 10° E visible
28 Nov - 20:08:03 10° W 20:11:20 72° NNW 20:14:37 10° ENE visible
28 Nov - 21:44:47 10° WNW 21:48:02 56° N 21:51:16 10° E night (unlit)
28 Nov - 23:21:19 10° WNW 23:24:35 63° SSW 23:27:49 10° ESE night (unlit)
29 Nov - 00:58:48 10° WSW 01:00:33 14° SW 01:02:17 10° S night (unlit)
29 Nov - 17:40:18 10° SSW 17:42:49 20° SE 17:45:20 10° E visible
29 Nov - 19:15:40 10° WSW 19:18:57 86° SSE 19:22:14 10° ENE visible
29 Nov - 20:52:21 10° W 20:55:35 53° N 20:58:48 10° ENE night (unlit)
29 Nov - 22:28:57 10° WNW 22:32:14 90° NNE 22:35:31 10° ESE night (unlit)
30 Nov - 00:05:48 10° W 00:08:25 22° SW 00:11:00 10° SSE night (unlit)
30 Nov - 16:49:10 10° SSE 16:50:41 13° SE 16:52:11 10° ESE visible
30 Nov - 18:23:22 10° SW 18:26:37 59° SSE 18:29:51 10° ENE visible
30 Nov - 19:59:53 10° W 20:03:08 57° N 20:06:23 10° ENE visible
30 Nov - 21:36:33 10° WNW 21:39:50 69° NNE 21:43:06 10° E night (unlit)
30 Nov - 23:13:10 10° W 23:16:11 35° SSW 23:19:12 10° SE night (unlit)
01 Dec - 17:31:14 10° SW 17:34:19 38° SSE 17:37:22 10° E visible
01 Dec - 19:07:25 10° W 19:10:41 67° NNW 19:13:57 10° ENE visible
01 Dec - 20:44:09 10° WNW 20:47:24 58° N 20:50:38 10° E night (unlit)
01 Dec - 22:20:41 10° WNW 22:23:54 55° SSW 22:27:06 10° SE night (unlit)
01 Dec - 23:58:37 10° WSW 23:59:47 11° SW 00:00:57 10° SSW night (unlit)
02 Dec - 16:39:21 10° SSW 16:42:03 24° SE 16:44:46 10° E daylight
02 Dec - 18:14:58 10° WSW 18:18:16 86° NNW 18:21:34 10° ENE visible
02 Dec - 19:51:41 10° WNW 19:54:55 53° N 19:58:09 10° E visible
02 Dec - 21:28:14 10° WNW 21:31:32 81° SSW 21:34:49 10° ESE night (unlit)
02 Dec - 23:05:15 10° W 23:07:38 19° SW 23:10:01 10° S night (unlit)
